Regional Weather Roundup
Issued by NWS Jackson, KY

Home | Current Version | Previous Version | Text Only | Print | Product List | Glossary Off
Versions: 1 2 3 4 5 6 7 8 9 10 11 12 13 14 15 16 17 18 19 20 21 22 23 24 25 26 27 28 29 30 31 32 33 34 35 36 37 38 39 40 41 42 43 44 45 46 47 48 49 50

000
ASUS43 KJKL 310005
RWRJKL

EAST KENTUCKY HOURLY WEATHER ROUNDUP
NATIONAL WEATHER SERVICE JACKSON KY
800 PM EDT SAT AUG 30 2014

NOTE: "FAIR" INDICATES FEW OR NO CLOUDS BELOW 12,000 FEET WITH
NO SIGNIFICANT WEATHER AND/OR OBSTRUCTIONS TO VISIBILITY.

* THESE REPORTS ARE NOT UNDER NWS QUALITY CONTROL AND MAY NOT
  REPORT WEATHER SUCH AS PRECIPITATION AND FOG.

KYZ079-080-083-085-087-088-110-112-115-119-120-310100
...EASTERN KENTUCKY...

CITY           SKY/WX    TMP DP  RH WIND       PRES   REMARKS
JACKSON        CLOUDY    80  68  66 CALM      30.08F
6HR MIN TEMP:  80; 6HR MAX TEMP:  89; 6HR PCP: TRACE;

LONDON         CLOUDY    82  67  60 VRB7      30.09R
6HR MIN TEMP:  82; 6HR MAX TEMP:  90;

SOMERSET*      CLOUDY    81  68  65 CALM      30.07S
MONTICELLO*    MOCLDY    80  75  84 CALM      30.07S
6HR MIN TEMP:  80; 6HR MAX TEMP:  87;

WILLIAMSBURG*  PTCLDY    75  73  94 CALM      30.09R
MIDDLESBORO*   MOCLDY    74  72  94 CALM      30.10S
6HR MIN TEMP:  74; 6HR MAX TEMP:  88; 6HR PCP:  0.03;

HARLAN APT*    MOCLDY    75  70  83 MISG      30.11R
BLACK MTN*       N/A     70  66  88 NW1         N/A
PIKEVILLE APT* CLOUDY    81  68  65 CALM      30.10S
BIG SANDY*     MOCLDY    82  70  65 CALM      30.08R
MOREHEAD APT*  CLOUDY    82  68  61 SW6       30.07S
$$

KYZ035-036-041-042-044-050-067-078-099-310100
...CENTRAL KENTUCKY...

CITY           SKY/WX    TMP DP  RH WIND       PRES   REMARKS
MT STERLING*   CLOUDY    81  70  69 SW3       30.07S
FLEMING/MASON* CLOUDY    73  70  89 W3        30.06R
DANVILLE*      CLOUDY    79  68  69 CALM      30.06F
RICHMOND*      CLOUDY    81  68  65 CALM      30.05F
LEXINGTON      CLOUDY    81  70  69 VRB3      30.06R
6HR MIN TEMP:  81; 6HR MAX TEMP:  90; 6HR PCP: TRACE;

FRANKFORT      CLOUDY    74  70  87 SE3       30.05R
6HR MIN TEMP:  74; 6HR MAX TEMP:  88; 6HR PCP:  0.01;

$$

KYZ091>093-OHZ055-061-077-WVZ005-015-034-035-042-310100
...SOUTHERN OHIO/WEST VIRGINIA...

CITY           SKY/WX    TMP DP  RH WIND       PRES   REMARKS
COVINGTON      CLOUDY    73  70  90 S6        30.03F FOG
COLUMBUS       CLOUDY    85  64  49 SW12      30.00R
DAYTON         CLOUDY    79  69  71 S18G24    30.02R
WILMINGTON     LGT RAIN  72  68  87 SW8       30.03S FOG
HUNTINGTON     MOCLDY    82  69  64 CALM      30.03F
PINEVILLE*     MOCLDY    74  72  91 MISG      30.17S
BECKLEY        PTCLDY    76  63  64 SE6       30.17S
BLUEFIELD      PTCLDY    77  61  57 S5        30.21S
$$

VAZ002-007-008-TNZ017-027-036-066-071-310100
...SOUTHWEST VIRGINIA/EAST TENNESSEE...

CITY           SKY/WX    TMP DP  RH WIND       PRES   REMARKS
WISE*          CLOUDY    77  63  61 CALM      30.19S
JONESVILLE*      N/A     81  72  74 CALM      30.12R
ABINGDON*      MOCLDY    80  67  62 S3        30.16R
BRISTOL        CLOUDY    81  62  52 S5        30.12R
KNOXVILLE      CLOUDY    78  74  87 NE3       30.07R
OAK RIDGE      CLOUDY    79  73  82 CALM      30.09S
CROSSVILLE     CLOUDY    78  69  73 S3        30.13R
NASHVILLE      TSTM      75  73  94 CALM      30.06R FOG
$$

...KEY TO REMARKS...
VSB - VISIBILITY IN MILES
WCI - WIND CHILL INDEX
HX  - HEAT INDEX

$$



USA.gov is the U.S. government's official web portal to all federal, state and local government web resources and services.